Temp_Advection
nan nan nan nan nan nan nan nan nan nan nan nan nan nan nan nan nan nan nan nan nan nan
nan 0 -0 -0 -0 -0 -0 -0 -0 0 -0 -0 -1 -0 -0 -1 -1 -0 -0 -1 -0 nan
nan -0 0 -0 -0 -0 -0 -0 -0 0 -0 -0 -0 -0 -0 -1 -1 -1 -1 -0 -0 nan
nan -0 -0 -0 -0 -0 -1 -0 -0 0 0 -1 -1 -0 0 -0 -1 -1 -1 -1 -0 nan
nan -0 -0 -0 -0 -0 -0 -0 0 -0 1 0 -0 -1 -1 -0 -0 -0 -1 -1 -1 nan
nan -0 -0 -0 -0 -0 -0 -1 -0 0 0 0 0 -0 -0 -0 -0 -0 -0 -1 -1 nan
nan -0 -0 -0 -0 -0 -0 -0 -0 -0 0 0 0 0 -0 -0 -0 -0 -0 -0 -0 nan
nan -0 -0 -0 -0 -0 -0 -0 -0 -0 -0 -0 0 0 -0 -0 -0 -0 -0 -0 -0 nan
nan -1 -1 -1 -0 -0 -0 -0 -0 0 -1 -1 -0 1 -0 -1 -0 -0 -0 -0 -0 nan
nan -0 -0 -0 -1 -0 -0 -1 -0 -0 -0 -1 -1 0 0 -1 -1 -0 -0 -0 -0 nan
nan -0 -1 -0 -1 -0 -1 -1 -1 -1 -0 -1 0 0 -1 -1 -1 -1 -0 -0 -0 nan
nan -0 -0 -1 -1 -0 -0 -1 -1 -1 -0 -1 -1 1 -0 -1 -1 -1 -0 -0 -0 nan
nan -0 -0 -0 -0 -1 -0 -1 -0 -1 -0 -0 -1 -1 0 0 -1 -1 -1 -0 -0 nan
nan nan nan nan nan nan nan nan nan nan nan nan nan nan nan nan nan nan nan nan nan nan
Wind_Speed
33 33 34 34 34 34 33 33 31 29 28 29 28 27 25 23 22 21 20 20 18 20
33 33 33 33 32 32 31 31 30 29 29 28 26 25 24 23 22 20 20 19 18 18
33 32 32 31 31 30 30 30 31 29 27 26 25 25 24 24 23 22 21 19 17 16
32 32 30 30 30 29 30 31 31 29 27 29 28 26 25 24 23 21 21 21 19 18
33 32 31 31 30 30 32 32 31 30 29 27 26 26 26 26 24 25 23 22 21 20
32 32 31 31 31 32 33 32 31 29 28 27 25 27 26 25 24 22 23 24 22 21
32 31 31 32 32 33 33 33 32 30 28 25 25 25 25 23 22 20 20 20 19 18
32 32 33 34 35 35 34 34 34 33 28 26 25 24 23 23 24 24 23 21 21 21
34 34 35 36 36 37 36 36 35 33 30 27 25 23 23 23 24 24 24 23 22 20
34 36 36 36 37 38 38 37 34 32 30 28 26 23 24 23 23 23 24 25 25 24
36 37 37 38 38 38 37 35 34 32 30 28 26 23 24 23 24 24 25 26 26 26
35 37 39 40 39 37 36 36 34 31 30 29 28 24 22 24 25 25 24 23 23 24
37 37 38 39 37 36 34 34 32 33 29 27 27 22 20 20 20 22 23 23 24 23
37 37 38 36 35 36 35 35 33 32 30 27 24 22 19 20 21 23 24 24 25 25
Wind_Direction
322 321 321 320 318 318 319 318 317 315 310 306 305 303 302 300 296 292 287 280 271 259
321 321 320 319 318 318 319 318 316 312 309 308 305 305 304 300 295 292 288 281 274 263
321 321 320 319 319 320 320 321 319 316 312 310 308 306 305 301 297 292 288 284 279 267
322 322 321 321 321 322 322 322 320 319 310 305 302 300 293 296 298 295 285 278 274 266
325 325 324 324 323 323 323 322 320 315 311 305 305 302 299 295 287 288 289 285 278 269
326 325 325 324 323 323 323 321 319 316 308 302 298 297 298 297 292 286 284 284 280 274
326 327 325 325 324 324 322 321 320 316 310 302 298 296 298 301 297 291 286 285 283 279
326 327 327 327 325 324 323 322 321 317 312 304 298 296 296 295 294 292 287 282 278 273
328 328 328 326 324 324 323 322 319 316 313 306 299 295 288 285 286 286 285 281 279 275
329 329 328 326 325 324 322 320 318 318 315 308 301 296 289 286 281 278 278 277 278 276
330 328 327 326 325 323 321 321 320 317 314 310 305 297 289 285 281 275 274 273 273 270
330 330 328 325 324 323 324 321 321 319 316 311 306 302 293 290 282 277 278 276 273 272
333 330 327 325 326 325 324 322 321 317 315 311 306 303 293 288 287 284 283 279 279 275
331 330 329 327 328 327 326 322 320 319 318 315 314 311 303 289 282 278 276 273 275 276
Height
1497 1491 1485 1479 1474 1468 1462 1457 1453 1449 1446 1443 1440 1437 1435 1433 1431 1430 1429 1429 1429 1428
1490 1485 1479 1474 1469 1464 1458 1452 1448 1444 1439 1436 1433 1431 1428 1427 1425 1424 1423 1423 1422 1422
1484 1479 1473 1468 1463 1458 1453 1447 1442 1437 1433 1430 1427 1424 1422 1421 1419 1417 1417 1417 1416 1416
1479 1473 1468 1462 1457 1452 1447 1442 1437 1432 1428 1424 1420 1418 1416 1415 1413 1411 1411 1411 1410 1410
1473 1468 1462 1457 1451 1447 1441 1436 1431 1426 1422 1418 1414 1412 1409 1407 1406 1405 1403 1403 1403 1403
1466 1462 1457 1452 1446 1440 1435 1430 1425 1420 1415 1411 1408 1405 1403 1401 1399 1398 1397 1396 1396 1395
1460 1455 1450 1446 1440 1434 1429 1423 1419 1414 1409 1405 1402 1398 1396 1394 1392 1391 1391 1390 1390 1389
1456 1450 1445 1439 1434 1428 1422 1416 1411 1406 1402 1398 1395 1392 1390 1389 1387 1385 1384 1384 1384 1383
1450 1443 1438 1433 1427 1421 1415 1408 1403 1399 1394 1390 1387 1385 1385 1384 1381 1379 1378 1376 1377 1377
1443 1437 1432 1426 1420 1414 1407 1401 1395 1390 1387 1382 1379 1377 1377 1376 1375 1372 1371 1369 1369 1369
1437 1431 1425 1419 1412 1406 1400 1394 1387 1382 1378 1374 1371 1370 1369 1368 1367 1365 1363 1362 1361 1361
1432 1424 1419 1412 1405 1398 1392 1386 1380 1375 1371 1368 1363 1362 1361 1361 1359 1357 1355 1354 1354 1354
1427 1419 1412 1406 1398 1392 1386 1379 1374 1368 1365 1361 1356 1354 1352 1352 1351 1350 1348 1348 1346 1346
1421 1413 1406 1399 1393 1386 1379 1373 1367 1362 1357 1353 1350 1346 1345 1345 1344 1343 1342 1340 1339 1338